Time,TemperatureF,DewpointF,PressureIn,WindDirection,WindDirectionDegrees,WindSpeedMPH,WindSpeedGustMPH,Humidity,HourlyPrecipIn,Conditions,Clouds,dailyrainin,SoftwareType,DateUTC
2013-07-24 00:02:00,65.5,52.1,29.95,NW,315,4.0,4.0,62,0.00,,,0.00,WUHU216HW,2013-07-24 07:02:00,
2013-07-24 00:07:00,65.3,52.4,29.95,West,270,4.7,4.7,63,0.00,,,0.00,WUHU216HW,2013-07-24 07:07:00,
2013-07-24 00:12:00,65.3,52.4,29.95,WNW,293,3.4,4.7,63,0.00,,,0.00,WUHU216HW,2013-07-24 07:12:00,
2013-07-24 00:17:00,65.2,52.2,29.95,West,270,3.1,3.4,63,0.00,,,0.00,WUHU216HW,2013-07-24 07:17:00,
2013-07-24 00:22:00,65.2,52.7,29.95,WNW,293,2.9,3.4,64,0.00,,,0.00,WUHU216HW,2013-07-24 07:22:00,
2013-07-24 00:27:00,65.2,52.7,29.95,NW,315,0.4,4.7,64,0.00,,,0.00,WUHU216HW,2013-07-24 07:27:00,
2013-07-24 00:32:00,65.0,52.5,29.95,NNW,338,0.7,4.7,64,0.00,,,0.00,WUHU216HW,2013-07-24 07:32:00,
2013-07-24 00:37:00,64.8,52.8,29.94,WNW,293,1.8,1.8,65,0.00,,,0.00,WUHU216HW,2013-07-24 07:37:00,
2013-07-24 00:42:00,64.6,52.6,29.94,West,270,1.1,1.8,65,0.00,,,0.00,WUHU216HW,2013-07-24 07:42:00,
2013-07-24 00:47:00,64.4,52.4,29.94,West,270,1.8,2.0,65,0.00,,,0.00,WUHU216HW,2013-07-24 07:47:00,
2013-07-24 00:52:00,64.4,52.8,29.94,WNW,293,2.5,4.7,66,0.00,,,0.00,WUHU216HW,2013-07-24 07:52:00,
2013-07-24 00:57:00,64.3,52.7,29.94,WNW,293,2.0,4.7,66,0.00,,,0.00,WUHU216HW,2013-07-24 07:57:00,
2013-07-24 01:02:00,64.3,52.7,29.94,West,270,1.1,2.9,66,0.00,,,0.00,WUHU216HW,2013-07-24 08:02:00,
2013-07-24 01:07:00,64.1,52.5,29.94,WNW,293,1.1,2.5,66,0.00,,,0.00,WUHU216HW,2013-07-24 08:07:00,
2013-07-24 01:12:00,63.9,52.3,29.94,NW,315,0.9,1.1,66,0.00,,,0.00,WUHU216HW,2013-07-24 08:12:00,
2013-07-24 01:17:00,63.9,52.3,29.94,WNW,293,0.4,0.9,66,0.00,,,0.00,WUHU216HW,2013-07-24 08:17:00,
2013-07-24 01:22:00,63.7,52.1,29.94,NNW,338,0.0,0.9,66,0.00,,,0.00,WUHU216HW,2013-07-24 08:22:00,
2013-07-24 01:27:00,63.7,52.6,29.94,West,270,0.9,0.9,67,0.00,,,0.00,WUHU216HW,2013-07-24 08:27:00,
2013-07-24 01:32:00,63.5,52.4,29.93,West,270,0.0,0.9,67,0.00,,,0.00,WUHU216HW,2013-07-24 08:32:00,
2013-07-24 01:37:00,63.4,52.2,29.93,West,270,0.0,0.4,67,0.00,,,0.00,WUHU216HW,2013-07-24 08:37:00,
2013-07-24 01:42:00,63.4,52.2,29.93,West,270,0.0,0.0,67,0.00,,,0.00,WUHU216HW,2013-07-24 08:42:00,
2013-07-24 01:47:00,63.2,52.5,29.93,SSW,203,0.2,0.4,68,0.00,,,0.00,WUHU216HW,2013-07-24 08:47:00,
2013-07-24 01:52:00,63.0,52.3,29.93,SSW,203,0.0,0.4,68,0.00,,,0.00,WUHU216HW,2013-07-24 08:52:00,
2013-07-24 01:57:00,62.8,52.1,29.93,SSW,203,0.0,0.4,68,0.00,,,0.00,WUHU216HW,2013-07-24 08:57:00,
2013-07-24 02:02:00,62.6,51.9,29.93,SSE,158,0.4,0.4,68,0.00,,,0.00,WUHU216HW,2013-07-24 09:02:00,
2013-07-24 02:07:00,62.5,51.8,29.92,SSE,158,0.0,0.4,68,0.00,,,0.00,WUHU216HW,2013-07-24 09:07:00,
2013-07-24 02:12:00,62.5,52.2,29.92,SSE,158,0.2,0.4,69,0.00,,,0.00,WUHU216HW,2013-07-24 09:12:00,
2013-07-24 02:17:00,62.3,52.0,29.93,SSE,158,0.0,0.2,69,0.00,,,0.00,WUHU216HW,2013-07-24 09:17:00,
2013-07-24 02:22:00,62.3,52.4,29.92,SSE,158,0.0,0.0,70,0.00,,,0.00,WUHU216HW,2013-07-24 09:22:00,
2013-07-24 02:27:00,62.1,52.3,29.92,NNE,23,0.0,0.0,70,0.00,,,0.00,WUHU216HW,2013-07-24 09:27:00,
2013-07-24 02:32:00,61.9,52.1,29.92,NNE,23,0.0,0.0,70,0.00,,,0.00,WUHU216HW,2013-07-24 09:32:00,
2013-07-24 02:37:00,61.9,51.7,29.92,NNE,23,0.0,0.0,69,0.00,,,0.00,WUHU216HW,2013-07-24 09:37:00,
2013-07-24 02:42:00,61.7,51.5,29.92,NNE,23,0.0,0.0,69,0.00,,,0.00,WUHU216HW,2013-07-24 09:42:00,
2013-07-24 02:47:00,61.6,51.4,29.92,NNE,23,0.0,0.0,69,0.00,,,0.00,WUHU216HW,2013-07-24 09:47:00,
2013-07-24 02:52:00,61.6,51.8,29.92,NNE,23,0.0,0.2,70,0.00,,,0.00,WUHU216HW,2013-07-24 09:52:00,
2013-07-24 02:57:00,61.6,51.8,29.92,NNE,23,0.0,0.2,70,0.00,,,0.00,WUHU216HW,2013-07-24 09:57:00,
2013-07-24 03:02:00,61.4,51.6,29.92,NNE,23,0.0,0.0,70,0.00,,,0.00,WUHU216HW,2013-07-24 10:02:00,
2013-07-24 03:07:00,61.2,51.9,29.92,NNE,23,0.0,0.2,71,0.00,,,0.00,WUHU216HW,2013-07-24 10:07:00,
2013-07-24 03:12:00,61.2,52.9,29.92,NNE,23,0.7,0.7,74,0.00,,,0.00,WUHU216HW,2013-07-24 10:12:00,
2013-07-24 03:17:00,61.2,52.6,29.92,NNE,23,0.0,0.7,73,0.00,,,0.00,WUHU216HW,2013-07-24 10:17:00,
2013-07-24 03:22:00,61.2,52.6,29.92,North,0,0.0,1.3,73,0.00,,,0.00,WUHU216HW,2013-07-24 10:22:00,
2013-07-24 03:27:00,61.2,52.6,29.92,WNW,293,0.0,1.3,73,0.00,,,0.00,WUHU216HW,2013-07-24 10:27:00,
2013-07-24 03:32:00,61.0,52.4,29.92,WNW,293,0.0,0.7,73,0.00,,,0.00,WUHU216HW,2013-07-24 10:32:00,
2013-07-24 03:37:00,61.0,52.4,29.92,WNW,293,0.2,0.2,73,0.00,,,0.00,WUHU216HW,2013-07-24 10:37:00,
2013-07-24 03:42:00,61.0,52.4,29.92,WNW,293,0.0,0.2,73,0.00,,,0.00,WUHU216HW,2013-07-24 10:42:00,
2013-07-24 03:47:00,61.0,52.4,29.92,WNW,293,0.0,0.0,73,0.00,,,0.00,WUHU216HW,2013-07-24 10:47:00,
2013-07-24 03:52:00,60.8,52.2,29.92,WNW,293,0.0,0.0,73,0.00,,,0.00,WUHU216HW,2013-07-24 10:52:00,
2013-07-24 03:57:00,60.8,52.2,29.92,WNW,293,0.0,0.2,73,0.00,,,0.00,WUHU216HW,2013-07-24 10:57:00,
2013-07-24 04:02:00,60.8,52.2,29.92,WNW,293,0.0,0.4,73,0.00,,,0.00,WUHU216HW,2013-07-24 11:02:00,
2013-07-24 04:07:00,60.7,52.0,29.92,WNW,293,0.0,0.4,73,0.00,,,0.00,WUHU216HW,2013-07-24 11:07:00,
2013-07-24 04:12:00,60.7,52.7,29.92,WNW,293,0.0,0.4,75,0.00,,,0.00,WUHU216HW,2013-07-24 11:12:00,
2013-07-24 04:17:00,60.5,52.2,29.92,WNW,293,0.0,0.4,74,0.00,,,0.00,WUHU216HW,2013-07-24 11:17:00,
2013-07-24 04:22:00,60.3,52.0,29.92,WNW,293,0.0,0.0,74,0.00,,,0.00,WUHU216HW,2013-07-24 11:22:00,
2013-07-24 04:27:00,60.1,51.8,29.92,WNW,293,0.0,0.0,74,0.00,,,0.00,WUHU216HW,2013-07-24 11:27:00,
2013-07-24 04:32:00,60.1,51.8,29.92,WNW,293,0.0,0.0,74,0.00,,,0.00,WUHU216HW,2013-07-24 11:32:00,
2013-07-24 04:37:00,59.9,51.7,29.92,WNW,293,0.0,0.0,74,0.00,,,0.00,WUHU216HW,2013-07-24 11:37:00,
2013-07-24 04:42:00,59.8,51.5,29.92,WNW,293,0.0,0.0,74,0.00,,,0.00,WUHU216HW,2013-07-24 11:42:00,
2013-07-24 04:47:00,59.8,51.5,29.92,WNW,293,0.0,0.0,74,0.00,,,0.00,WUHU216HW,2013-07-24 11:47:00,
2013-07-24 04:52:00,59.6,51.7,29.92,WNW,293,0.0,0.0,75,0.00,,,0.00,WUHU216HW,2013-07-24 11:52:00,
2013-07-24 04:57:00,59.6,51.7,29.92,NNW,338,0.0,0.4,75,0.00,,,0.00,WUHU216HW,2013-07-24 11:57:00,
2013-07-24 05:02:00,59.4,51.5,29.93,NNW,338,0.0,0.4,75,0.00,,,0.00,WUHU216HW,2013-07-24 12:02:00,
2013-07-24 05:07:00,59.4,51.8,29.92,NNW,338,0.0,0.0,76,0.00,,,0.00,WUHU216HW,2013-07-24 12:07:00,
2013-07-24 05:12:00,59.4,52.6,29.92,NNW,338,0.0,0.0,78,0.00,,,0.00,WUHU216HW,2013-07-24 12:12:00,
2013-07-24 05:17:00,59.4,52.6,29.92,NNW,338,0.0,0.0,78,0.00,,,0.00,WUHU216HW,2013-07-24 12:17:00,
2013-07-24 05:22:00,59.4,52.6,29.93,North,0,0.0,0.0,78,0.00,,,0.00,WUHU216HW,2013-07-24 12:22:00,
2013-07-24 05:27:00,59.2,52.4,29.93,North,0,0.4,0.4,78,0.00,,,0.00,WUHU216HW,2013-07-24 12:27:00,
2013-07-24 05:32:00,59.2,52.4,29.93,North,0,0.0,0.4,78,0.00,,,0.00,WUHU216HW,2013-07-24 12:32:00,
2013-07-24 05:37:00,59.2,52.4,29.94,North,0,0.0,0.2,78,0.00,,,0.00,WUHU216HW,2013-07-24 12:37:00,
2013-07-24 05:42:00,59.0,52.2,29.94,North,0,0.0,0.0,78,0.00,,,0.00,WUHU216HW,2013-07-24 12:42:00,
2013-07-24 05:47:00,59.0,52.2,29.94,North,0,0.0,0.0,78,0.00,,,0.00,WUHU216HW,2013-07-24 12:47:00,
2013-07-24 05:52:00,58.9,52.0,29.93,North,0,0.0,0.0,78,0.00,,,0.00,WUHU216HW,2013-07-24 12:52:00,
2013-07-24 05:57:00,58.9,52.4,29.94,SSW,203,0.9,0.9,79,0.00,,,0.00,WUHU216HW,2013-07-24 12:57:00,
2013-07-24 06:02:00,58.9,52.7,29.94,SW,225,0.0,1.1,80,0.00,,,0.00,WUHU216HW,2013-07-24 13:02:00,
2013-07-24 06:07:00,58.9,52.4,29.94,NNE,23,0.9,1.1,79,0.00,,,0.00,WUHU216HW,2013-07-24 13:07:00,
2013-07-24 06:12:00,58.9,52.7,29.94,NE,45,0.4,1.1,80,0.00,,,0.00,WUHU216HW,2013-07-24 13:12:00,
2013-07-24 06:17:00,58.9,52.4,29.94,NNE,23,0.0,1.1,79,0.00,,,0.00,WUHU216HW,2013-07-24 13:17:00,
2013-07-24 06:22:00,58.7,52.2,29.94,NNE,23,0.2,0.9,79,0.00,,,0.00,WUHU216HW,2013-07-24 13:22:00,
2013-07-24 06:27:00,58.7,52.2,29.94,NNE,23,1.1,1.1,79,0.00,,,0.00,WUHU216HW,2013-07-24 13:27:00,
2013-07-24 06:32:00,58.7,52.2,29.94,NNE,23,0.0,1.1,79,0.00,,,0.00,WUHU216HW,2013-07-24 13:32:00,
2013-07-24 06:37:00,58.9,52.7,29.94,NNE,23,0.0,1.1,80,0.00,,,0.00,WUHU216HW,2013-07-24 13:37:00,
2013-07-24 06:42:00,58.9,52.7,29.94,NNE,23,0.0,0.2,80,0.00,,,0.00,WUHU216HW,2013-07-24 13:42:00,
2013-07-24 06:47:00,59.0,53.3,29.94,East,90,0.9,1.1,81,0.00,,,0.00,WUHU216HW,2013-07-24 13:47:00,
2013-07-24 06:52:00,59.2,53.5,29.94,NE,45,1.1,1.1,81,0.00,,,0.00,WUHU216HW,2013-07-24 13:52:00,
2013-07-24 06:57:00,59.4,53.7,29.94,NE,45,0.0,1.1,81,0.00,,,0.00,WUHU216HW,2013-07-24 13:57:00,
2013-07-24 07:02:00,59.8,54.0,29.95,ENE,68,0.2,1.1,81,0.00,,,0.00,WUHU216HW,2013-07-24 14:02:00,
2013-07-24 07:07:00,60.1,54.4,29.95,SE,135,0.4,0.7,81,0.00,,,0.00,WUHU216HW,2013-07-24 14:07:00,
2013-07-24 07:12:00,60.5,54.7,29.95,SE,135,0.0,0.7,81,0.00,,,0.00,WUHU216HW,2013-07-24 14:12:00,
2013-07-24 07:17:00,60.8,55.1,29.95,SSE,158,0.7,0.9,81,0.00,,,0.00,WUHU216HW,2013-07-24 14:17:00,
2013-07-24 07:22:00,61.4,55.2,29.95,SE,135,0.4,1.1,80,0.00,,,0.00,WUHU216HW,2013-07-24 14:22:00,
2013-07-24 07:27:00,61.7,55.2,29.95,East,90,0.4,1.1,79,0.00,,,0.00,WUHU216HW,2013-07-24 14:27:00,
2013-07-24 07:32:00,62.1,55.5,29.95,North,0,0.0,1.8,79,0.00,,,0.00,WUHU216HW,2013-07-24 14:32:00,
2013-07-24 07:37:00,62.6,55.6,29.95,NNE,23,0.7,1.8,78,0.00,,,0.00,WUHU216HW,2013-07-24 14:37:00,
2013-07-24 07:42:00,63.0,55.6,29.95,WNW,293,0.7,0.7,77,0.00,,,0.00,WUHU216HW,2013-07-24 14:42:00,
2013-07-24 07:47:00,63.5,56.2,29.95,West,270,0.2,1.1,77,0.00,,,0.00,WUHU216HW,2013-07-24 14:47:00,
2013-07-24 07:52:00,64.1,56.7,29.95,NNE,23,0.9,2.0,77,0.00,,,0.00,WUHU216HW,2013-07-24 14:52:00,
2013-07-24 07:57:00,64.6,56.9,29.95,NNE,23,0.0,2.0,76,0.00,,,0.00,WUHU216HW,2013-07-24 14:57:00,
2013-07-24 08:02:00,65.3,57.2,29.95,North,0,0.2,0.9,75,0.00,,,0.00,WUHU216HW,2013-07-24 15:02:00,
2013-07-24 08:07:00,65.9,57.3,29.95,WSW,248,0.2,2.5,74,0.00,,,0.00,WUHU216HW,2013-07-24 15:07:00,
2013-07-24 08:12:00,66.6,57.7,29.95,North,0,0.7,2.5,73,0.00,,,0.00,WUHU216HW,2013-07-24 15:12:00,
2013-07-24 08:17:00,67.0,57.6,29.95,WNW,293,1.1,1.8,72,0.00,,,0.00,WUHU216HW,2013-07-24 15:17:00,
2013-07-24 08:22:00,67.7,57.6,29.95,SE,135,0.7,1.1,70,0.00,,,0.00,WUHU216HW,2013-07-24 15:22:00,
2013-07-24 08:27:00,68.2,57.7,29.95,SSE,158,0.0,1.3,69,0.00,,,0.00,WUHU216HW,2013-07-24 15:27:00,
2013-07-24 08:32:00,68.6,57.6,29.95,ENE,68,0.4,2.0,68,0.00,,,0.00,WUHU216HW,2013-07-24 15:32:00,
2013-07-24 08:37:00,69.1,57.7,29.95,NNE,23,0.4,2.0,67,0.00,,,0.00,WUHU216HW,2013-07-24 15:37:00,
2013-07-24 08:42:00,69.8,58.0,29.95,SSW,203,1.6,1.6,66,0.00,,,0.00,WUHU216HW,2013-07-24 15:42:00,
2013-07-24 08:47:00,70.2,58.2,29.95,WNW,293,0.0,1.6,66,0.00,,,0.00,WUHU216HW,2013-07-24 15:47:00,
2013-07-24 08:52:00,70.9,58.2,29.95,NE,45,1.3,1.6,64,0.00,,,0.00,WUHU216HW,2013-07-24 15:52:00,
2013-07-24 08:57:00,71.5,58.6,29.95,West,270,0.4,1.6,64,0.00,,,0.00,WUHU216HW,2013-07-24 15:57:00,
2013-07-24 09:02:00,72.0,58.2,29.95,NNE,23,0.7,1.1,62,0.00,,,0.00,WUHU216HW,2013-07-24 16:02:00,
2013-07-24 09:07:00,72.5,58.3,29.95,North,0,2.0,2.2,61,0.00,,,0.00,WUHU216HW,2013-07-24 16:07:00,
2013-07-24 09:12:00,73.3,58.1,29.95,North,0,1.3,2.2,59,0.00,,,0.00,WUHU216HW,2013-07-24 16:12:00,
2013-07-24 09:17:00,73.8,58.5,29.95,WNW,293,0.4,2.2,59,0.00,,,0.00,WUHU216HW,2013-07-24 16:17:00,
2013-07-24 09:22:00,74.5,58.8,29.95,North,0,1.8,2.0,58,0.00,,,0.00,WUHU216HW,2013-07-24 16:22:00,
2013-07-24 09:27:00,75.1,58.8,29.95,NW,315,0.4,2.0,57,0.00,,,0.00,WUHU216HW,2013-07-24 16:27:00,
2013-07-24 09:32:00,75.8,58.4,29.95,NE,45,2.5,2.5,55,0.00,,,0.00,WUHU216HW,2013-07-24 16:32:00,
2013-07-24 09:37:00,76.3,56.9,29.95,WSW,248,2.0,3.4,51,0.00,,,0.00,WUHU216HW,2013-07-24 16:37:00,
2013-07-24 09:42:00,77.0,57.1,29.95,WSW,248,2.5,3.4,50,0.00,,,0.00,WUHU216HW,2013-07-24 16:42:00,
2013-07-24 09:47:00,77.6,56.4,29.95,West,270,4.0,4.7,48,0.00,,,0.00,WUHU216HW,2013-07-24 16:47:00,
2013-07-24 09:52:00,78.1,56.8,29.95,WSW,248,1.3,4.7,48,0.00,,,0.00,WUHU216HW,2013-07-24 16:52:00,
2013-07-24 09:57:00,78.7,56.1,29.95,NW,315,4.3,5.1,46,0.00,,,0.00,WUHU216HW,2013-07-24 16:57:00,
2013-07-24 10:02:00,79.0,54.5,29.95,West,270,2.9,6.7,43,0.00,,,0.00,WUHU216HW,2013-07-24 17:02:00,
2013-07-24 10:07:00,79.4,54.9,29.95,West,270,2.2,6.7,43,0.00,,,0.00,WUHU216HW,2013-07-24 17:07:00,
2013-07-24 10:12:00,79.9,54.7,29.95,West,270,2.0,6.5,42,0.00,,,0.00,WUHU216HW,2013-07-24 17:12:00,
2013-07-24 10:17:00,80.5,54.6,29.95,WNW,293,3.1,6.5,41,0.00,,,0.00,WUHU216HW,2013-07-24 17:17:00,
2013-07-24 10:22:00,80.8,55.0,29.95,WNW,293,4.7,6.3,41,0.00,,,0.00,WUHU216HW,2013-07-24 17:22:00,
2013-07-24 10:27:00,81.2,53.9,29.95,WSW,248,3.4,6.5,39,0.00,,,0.00,WUHU216HW,2013-07-24 17:27:00,
2013-07-24 10:32:00,81.4,54.1,29.95,WNW,293,6.3,7.8,39,0.00,,,0.00,WUHU216HW,2013-07-24 17:32:00,
2013-07-24 10:37:00,81.5,54.2,29.95,West,270,3.4,7.8,39,0.00,,,0.00,WUHU216HW,2013-07-24 17:37:00,
2013-07-24 10:42:00,81.9,55.4,29.95,WSW,248,3.4,6.9,40,0.00,,,0.00,WUHU216HW,2013-07-24 17:42:00,
2013-07-24 10:47:00,82.4,55.0,29.95,NW,315,2.0,6.3,39,0.00,,,0.00,WUHU216HW,2013-07-24 17:47:00,
2013-07-24 10:52:00,82.8,55.4,29.95,WSW,248,3.4,6.3,39,0.00,,,0.00,WUHU216HW,2013-07-24 17:52:00,
2013-07-24 10:57:00,83.0,56.3,29.95,West,270,2.7,6.3,40,0.00,,,0.00,WUHU216HW,2013-07-24 17:57:00,
2013-07-24 11:02:00,83.2,55.6,29.95,West,270,3.6,5.4,39,0.00,,,0.00,WUHU216HW,2013-07-24 18:02:00,
2013-07-24 11:07:00,83.7,56.2,29.95,WNW,293,3.4,7.8,39,0.00,,,0.00,WUHU216HW,2013-07-24 18:07:00,
2013-07-24 11:12:00,83.9,54.7,29.95,WNW,293,5.1,7.8,37,0.00,,,0.00,WUHU216HW,2013-07-24 18:12:00,
2013-07-24 11:17:00,83.9,55.5,29.95,West,270,6.9,6.9,38,0.00,,,0.00,WUHU216HW,2013-07-24 18:17:00,
2013-07-24 11:22:00,83.9,56.4,29.95,West,270,4.0,6.9,39,0.00,,,0.00,WUHU216HW,2013-07-24 18:22:00,
2013-07-24 11:27:00,83.9,54.7,29.94,SW,225,4.9,6.9,37,0.00,,,0.00,WUHU216HW,2013-07-24 18:27:00,
2013-07-24 11:32:00,84.2,55.1,29.94,NW,315,3.4,6.7,37,0.00,,,0.00,WUHU216HW,2013-07-24 18:32:00,
2013-07-24 11:37:00,84.4,53.7,29.94,WSW,248,6.5,6.5,35,0.00,,,0.00,WUHU216HW,2013-07-24 18:37:00,
2013-07-24 11:42:00,84.6,53.0,29.94,WNW,293,4.7,7.6,34,0.00,,,0.00,WUHU216HW,2013-07-24 18:42:00,
2013-07-24 11:47:00,84.6,54.5,29.94,WSW,248,3.4,7.6,36,0.00,,,0.00,WUHU216HW,2013-07-24 18:47:00,
2013-07-24 11:52:00,85.0,53.3,29.94,WNW,293,5.4,5.6,34,0.00,,,0.00,WUHU216HW,2013-07-24 18:52:00,
2013-07-24 11:57:00,85.3,52.8,29.94,SW,225,5.6,7.2,33,0.00,,,0.00,WUHU216HW,2013-07-24 18:57:00,
2013-07-24 12:02:00,85.5,52.2,29.93,WSW,248,4.7,7.6,32,0.00,,,0.00,WUHU216HW,2013-07-24 19:02:00,
2013-07-24 12:07:00,85.9,53.4,29.93,WSW,248,5.6,7.6,33,0.00,,,0.00,WUHU216HW,2013-07-24 19:07:00,
2013-07-24 12:12:00,86.2,54.5,29.93,SW,225,4.3,6.9,34,0.00,,,0.00,WUHU216HW,2013-07-24 19:12:00,
2013-07-24 12:17:00,86.8,53.3,29.93,West,270,4.7,5.8,32,0.00,,,0.00,WUHU216HW,2013-07-24 19:17:00,
2013-07-24 12:22:00,87.1,53.6,29.93,WSW,248,5.4,7.4,32,0.00,,,0.00,WUHU216HW,2013-07-24 19:22:00,
2013-07-24 12:27:00,87.5,53.9,29.93,WSW,248,2.9,7.4,32,0.00,,,0.00,WUHU216HW,2013-07-24 19:27:00,
2013-07-24 12:32:00,87.5,54.7,29.93,NW,315,2.5,6.3,33,0.00,,,0.00,WUHU216HW,2013-07-24 19:32:00,
2013-07-24 12:37:00,88.0,55.2,29.92,SSW,203,5.1,6.3,33,0.00,,,0.00,WUHU216HW,2013-07-24 19:37:00,
2013-07-24 12:42:00,88.6,56.4,29.92,NW,315,5.4,5.4,34,0.00,,,0.00,WUHU216HW,2013-07-24 19:42:00,
2013-07-24 12:47:00,88.9,55.2,29.92,North,0,2.0,6.5,32,0.00,,,0.00,WUHU216HW,2013-07-24 19:47:00,
2013-07-24 12:52:00,89.6,55.8,29.92,NNW,338,4.0,6.5,32,0.00,,,0.00,WUHU216HW,2013-07-24 19:52:00,
2013-07-24 12:57:00,89.8,55.9,29.92,West,270,3.1,5.1,32,0.00,,,0.00,WUHU216HW,2013-07-24 19:57:00,
2013-07-24 13:02:00,90.2,55.4,29.92,WSW,248,8.9,8.9,31,0.00,,,0.00,WUHU216HW,2013-07-24 20:02:00,
2013-07-24 13:07:00,90.4,54.8,29.92,SW,225,9.2,9.2,30,0.00,,,0.00,WUHU216HW,2013-07-24 20:07:00,
2013-07-24 13:12:00,90.4,56.4,29.92,West,270,6.3,9.2,32,0.00,,,0.00,WUHU216HW,2013-07-24 20:12:00,
2013-07-24 13:17:00,90.4,54.8,29.92,WSW,248,4.0,9.2,30,0.00,,,0.00,WUHU216HW,2013-07-24 20:17:00,
2013-07-24 13:22:00,90.4,54.8,29.92,West,270,4.0,9.2,30,0.00,,,0.00,WUHU216HW,2013-07-24 20:22:00,
2013-07-24 13:27:00,90.5,55.0,29.92,WSW,248,4.9,8.5,30,0.00,,,0.00,WUHU216HW,2013-07-24 20:27:00,
2013-07-24 13:32:00,90.7,54.1,29.92,West,270,7.6,9.6,29,0.00,,,0.00,WUHU216HW,2013-07-24 20:32:00,
2013-07-24 13:37:00,90.7,54.1,29.92,SSW,203,2.9,9.6,29,0.00,,,0.00,WUHU216HW,2013-07-24 20:37:00,
2013-07-24 13:42:00,90.7,54.1,29.91,WNW,293,8.3,8.3,29,0.00,,,0.00,WUHU216HW,2013-07-24 20:42:00,
2013-07-24 13:47:00,90.5,55.0,29.91,WSW,248,6.3,8.5,30,0.00,,,0.00,WUHU216HW,2013-07-24 20:47:00,
2013-07-24 13:52:00,90.5,55.0,29.91,WSW,248,5.1,8.5,30,0.00,,,0.00,WUHU216HW,2013-07-24 20:52:00,
2013-07-24 13:57:00,90.4,53.7,29.91,West,270,6.9,8.9,29,0.00,,,0.00,WUHU216HW,2013-07-24 20:57:00,
2013-07-24 14:02:00,90.5,51.8,29.91,WSW,248,4.7,8.9,27,0.00,,,0.00,WUHU216HW,2013-07-24 21:02:00,
2013-07-24 14:07:00,90.9,54.2,29.91,West,270,5.1,7.6,29,0.00,,,0.00,WUHU216HW,2013-07-24 21:07:00,
2013-07-24 14:12:00,91.3,54.5,29.91,WNW,293,7.8,7.8,29,0.00,,,0.00,WUHU216HW,2013-07-24 21:12:00,
2013-07-24 14:17:00,91.4,52.5,29.91,WSW,248,5.8,8.7,27,0.00,,,0.00,WUHU216HW,2013-07-24 21:17:00,
2013-07-24 14:22:00,91.6,54.8,29.90,West,270,5.8,8.7,29,0.00,,,0.00,WUHU216HW,2013-07-24 21:22:00,
2013-07-24 14:27:00,91.8,55.0,29.91,West,270,4.7,7.6,29,0.00,,,0.00,WUHU216HW,2013-07-24 21:27:00,
2013-07-24 14:32:00,92.0,52.9,29.90,WNW,293,4.5,7.6,27,0.00,,,0.00,WUHU216HW,2013-07-24 21:32:00,
2013-07-24 14:37:00,92.2,52.0,29.90,WSW,248,6.0,8.9,26,0.00,,,0.00,WUHU216HW,2013-07-24 21:37:00,
2013-07-24 14:42:00,92.2,50.9,29.90,SW,225,5.6,8.9,25,0.00,,,0.00,WUHU216HW,2013-07-24 21:42:00,
2013-07-24 14:47:00,92.5,52.3,29.90,WNW,293,4.7,9.8,26,0.00,,,0.00,WUHU216HW,2013-07-24 21:47:00,
2013-07-24 14:52:00,92.7,51.3,29.90,West,270,6.5,9.8,25,0.00,,,0.00,WUHU216HW,2013-07-24 21:52:00,
2013-07-24 14:57:00,92.7,52.4,29.90,WSW,248,5.8,9.2,26,0.00,,,0.00,WUHU216HW,2013-07-24 21:57:00,
2013-07-24 15:02:00,92.7,52.4,29.90,West,270,6.0,9.2,26,0.00,,,0.00,WUHU216HW,2013-07-24 22:02:00,
2013-07-24 15:07:00,92.9,51.5,29.90,WSW,248,6.7,9.8,25,0.00,,,0.00,WUHU216HW,2013-07-24 22:07:00,
2013-07-24 15:12:00,93.1,51.6,29.89,West,270,8.7,9.8,25,0.00,,,0.00,WUHU216HW,2013-07-24 22:12:00,
2013-07-24 15:17:00,93.2,50.7,29.89,West,270,9.2,9.2,24,0.00,,,0.00,WUHU216HW,2013-07-24 22:17:00,
2013-07-24 15:22:00,93.2,50.7,29.89,WSW,248,6.9,9.2,24,0.00,,,0.00,WUHU216HW,2013-07-24 22:22:00,
2013-07-24 15:27:00,93.1,50.5,29.89,WNW,293,5.1,8.1,24,0.00,,,0.00,WUHU216HW,2013-07-24 22:27:00,
2013-07-24 15:32:00,93.2,50.7,29.89,West,270,9.4,9.4,24,0.00,,,0.00,WUHU216HW,2013-07-24 22:32:00,
2013-07-24 15:37:00,93.4,50.8,29.89,SW,225,6.3,9.4,24,0.00,,,0.00,WUHU216HW,2013-07-24 22:37:00,
2013-07-24 15:42:00,94.0,51.3,29.88,West,270,9.4,9.4,24,0.00,,,0.00,WUHU216HW,2013-07-24 22:42:00,
2013-07-24 15:47:00,94.0,50.1,29.88,NNW,338,3.4,9.4,23,0.00,,,0.00,WUHU216HW,2013-07-24 22:47:00,
2013-07-24 15:52:00,94.3,50.5,29.88,WNW,293,5.1,7.8,23,0.00,,,0.00,WUHU216HW,2013-07-24 22:52:00,
2013-07-24 15:57:00,94.3,48.3,29.88,NW,315,4.0,9.8,21,0.00,,,0.00,WUHU216HW,2013-07-24 22:57:00,
2013-07-24 16:02:00,94.5,50.6,29.88,SSW,203,2.7,9.8,23,0.00,,,0.00,WUHU216HW,2013-07-24 23:02:00,
2013-07-24 16:07:00,94.5,48.4,29.88,WSW,248,5.4,6.3,21,0.00,,,0.00,WUHU216HW,2013-07-24 23:07:00,
2013-07-24 16:12:00,94.3,48.3,29.87,WNW,293,6.3,12.3,21,0.00,,,0.00,WUHU216HW,2013-07-24 23:12:00,
2013-07-24 16:17:00,94.1,48.1,29.87,WSW,248,9.2,12.3,21,0.00,,,0.00,WUHU216HW,2013-07-24 23:17:00,
2013-07-24 16:22:00,93.8,47.8,29.87,WSW,248,4.3,11.4,21,0.00,,,0.00,WUHU216HW,2013-07-24 23:22:00,
2013-07-24 16:27:00,93.6,47.6,29.87,West,270,11.9,11.9,21,0.00,,,0.00,WUHU216HW,2013-07-24 23:27:00,
2013-07-24 16:32:00,94.0,48.0,29.87,WSW,248,4.9,11.9,21,0.00,,,0.00,WUHU216HW,2013-07-24 23:32:00,
2013-07-24 16:37:00,94.1,48.1,29.87,West,270,3.6,8.5,21,0.00,,,0.00,WUHU216HW,2013-07-24 23:37:00,
2013-07-24 16:42:00,94.5,48.4,29.87,SW,225,6.3,6.5,21,0.00,,,0.00,WUHU216HW,2013-07-24 23:42:00,
2013-07-24 16:47:00,94.3,48.3,29.87,NW,315,4.0,10.3,21,0.00,,,0.00,WUHU216HW,2013-07-24 23:47:00,
2013-07-24 16:53:00,94.3,48.3,29.87,WSW,248,7.4,10.3,21,0.00,,,0.00,WUHU216HW,2013-07-24 23:53:00,
2013-07-24 16:58:00,94.1,50.3,29.87,West,270,4.0,8.1,23,0.00,,,0.00,WUHU216HW,2013-07-24 23:58:00,
2013-07-24 17:03:00,94.1,48.1,29.87,West,270,5.4,11.0,21,0.00,,,0.00,WUHU216HW,2013-07-25 00:03:00,
2013-07-24 17:08:00,94.3,48.3,29.87,West,270,6.9,11.0,21,0.00,,,0.00,WUHU216HW,2013-07-25 00:08:00,
2013-07-24 17:13:00,94.1,48.1,29.87,WSW,248,1.3,7.6,21,0.00,,,0.00,WUHU216HW,2013-07-25 00:13:00,
2013-07-24 17:18:00,94.3,50.5,29.87,West,270,3.1,4.9,23,0.00,,,0.00,WUHU216HW,2013-07-25 00:18:00,
2013-07-24 17:22:00,94.7,48.5,29.87,WNW,293,3.1,6.3,21,0.00,,,0.00,WUHU216HW,2013-07-25 00:22:00,
2013-07-24 17:27:00,94.3,48.3,29.87,West,270,8.7,8.7,21,0.00,,,0.00,WUHU216HW,2013-07-25 00:27:00,
2013-07-24 17:32:00,93.6,46.5,29.87,WSW,248,7.4,8.7,20,0.00,,,0.00,WUHU216HW,2013-07-25 00:32:00,
2013-07-24 17:37:00,92.9,47.1,29.87,WSW,248,5.8,8.7,21,0.00,,,0.00,WUHU216HW,2013-07-25 00:37:00,
2013-07-24 17:42:00,92.3,46.6,29.87,WSW,248,4.3,6.3,21,0.00,,,0.00,WUHU216HW,2013-07-25 00:42:00,
2013-07-24 17:47:00,92.0,48.5,29.87,West,270,5.6,8.3,23,0.00,,,0.00,WUHU216HW,2013-07-25 00:47:00,
2013-07-24 17:52:00,91.6,49.3,29.87,South,180,3.1,10.3,24,0.00,,,0.00,WUHU216HW,2013-07-25 00:52:00,
2013-07-24 17:57:00,91.1,48.9,29.86,North,0,6.0,10.3,24,0.00,,,0.00,WUHU216HW,2013-07-25 00:57:00,
2013-07-24 18:02:00,90.5,49.5,29.86,WSW,248,6.9,9.6,25,0.00,,,0.00,WUHU216HW,2013-07-25 01:02:00,
2013-07-24 18:07:00,90.2,51.4,29.86,WSW,248,4.5,7.4,27,0.00,,,0.00,WUHU216HW,2013-07-25 01:07:00,
2013-07-24 18:12:00,89.8,52.2,29.86,West,270,8.3,8.3,28,0.00,,,0.00,WUHU216HW,2013-07-25 01:12:00,
2013-07-24 18:17:00,89.3,52.7,29.86,WSW,248,2.7,8.3,29,0.00,,,0.00,WUHU216HW,2013-07-25 01:17:00,
2013-07-24 18:22:00,89.1,53.7,29.86,WSW,248,10.7,10.7,30,0.00,,,0.00,WUHU216HW,2013-07-25 01:22:00,
2013-07-24 18:27:00,88.6,53.2,29.86,West,270,3.6,10.7,30,0.00,,,0.00,WUHU216HW,2013-07-25 01:27:00,
2013-07-24 18:32:00,88.0,53.6,29.87,SW,225,7.6,7.6,31,0.00,,,0.00,WUHU216HW,2013-07-25 01:32:00,
2013-07-24 18:38:00,87.3,53.7,29.87,NW,315,2.7,7.6,32,0.00,,,0.00,WUHU216HW,2013-07-25 01:38:00,
2013-07-24 18:43:00,86.8,53.3,29.87,WNW,293,3.1,7.6,32,0.00,,,0.00,WUHU216HW,2013-07-25 01:43:00,
2013-07-24 18:48:00,86.4,53.0,29.87,SW,225,4.3,5.8,32,0.00,,,0.00,WUHU216HW,2013-07-25 01:48:00,
2013-07-24 18:53:00,85.9,52.6,29.87,SW,225,6.7,8.5,32,0.00,,,0.00,WUHU216HW,2013-07-25 01:53:00,
2013-07-24 18:58:00,85.3,52.8,29.87,SW,225,8.3,8.5,33,0.00,,,0.00,WUHU216HW,2013-07-25 01:58:00,
2013-07-24 19:03:00,84.6,53.0,29.87,WSW,248,6.7,8.3,34,0.00,,,0.00,WUHU216HW,2013-07-25 02:03:00,
2013-07-24 19:08:00,84.2,52.7,29.87,West,270,8.3,11.4,34,0.00,,,0.00,WUHU216HW,2013-07-25 02:08:00,
2013-07-24 19:13:00,83.7,52.2,29.86,SW,225,3.8,11.4,34,0.00,,,0.00,WUHU216HW,2013-07-25 02:13:00,
2013-07-24 19:18:00,83.3,51.8,29.87,West,270,7.8,7.8,34,0.00,,,0.00,WUHU216HW,2013-07-25 02:18:00,
2013-07-24 19:23:00,82.8,52.2,29.87,WSW,248,4.3,7.8,35,0.00,,,0.00,WUHU216HW,2013-07-25 02:23:00,
2013-07-24 19:28:00,82.4,52.7,29.87,SW,225,1.1,4.9,36,0.00,,,0.00,WUHU216HW,2013-07-25 02:28:00,
2013-07-24 19:33:00,82.1,53.1,29.87,SW,225,4.0,4.0,37,0.00,,,0.00,WUHU216HW,2013-07-25 02:33:00,
2013-07-24 19:37:00,81.7,52.8,29.87,West,270,4.0,4.0,37,0.00,,,0.00,WUHU216HW,2013-07-25 02:37:00,
2013-07-24 19:43:00,81.4,52.5,29.87,WSW,248,2.7,4.0,37,0.00,,,0.00,WUHU216HW,2013-07-25 02:43:00,
2013-07-24 19:47:00,81.0,52.9,29.87,West,270,3.4,4.9,38,0.00,,,0.00,WUHU216HW,2013-07-25 02:47:00,
2013-07-24 19:52:00,80.6,52.7,29.87,WSW,248,0.2,4.9,38,0.00,,,0.00,WUHU216HW,2013-07-25 02:52:00,
2013-07-24 19:57:00,80.3,52.3,29.88,WNW,293,3.6,4.9,38,0.00,,,0.00,WUHU216HW,2013-07-25 02:57:00,
2013-07-24 20:02:00,80.1,52.1,29.87,NNW,338,0.4,4.3,38,0.00,,,0.00,WUHU216HW,2013-07-25 03:02:00,
2013-07-24 20:03:00,80.1,52.1,29.87,NNW,338,0.4,4.3,38,0.00,,,0.00,WUHU216HW,2013-07-25 03:03:00,
2013-07-24 20:08:00,79.7,52.6,29.88,NW,315,1.8,2.7,39,0.00,,,0.00,WUHU216HW,2013-07-25 03:08:00,
2013-07-24 20:13:00,79.2,52.9,29.88,WNW,293,1.3,2.5,40,0.00,,,0.00,WUHU216HW,2013-07-25 03:13:00,
2013-07-24 20:18:00,78.5,52.2,29.88,NNW,338,1.1,6.3,40,0.00,,,0.00,WUHU216HW,2013-07-25 03:18:00,
2013-07-24 20:23:00,78.1,52.6,29.88,NW,315,3.4,6.3,41,0.00,,,0.00,WUHU216HW,2013-07-25 03:23:00,
2013-07-24 20:28:00,77.6,52.0,29.88,NNW,338,0.4,3.4,41,0.00,,,0.00,WUHU216HW,2013-07-25 03:28:00,
2013-07-24 20:34:00,77.0,52.2,29.88,NNW,338,1.3,3.4,42,0.00,,,0.00,WUHU216HW,2013-07-25 03:34:00,
2013-07-24 20:39:00,76.7,52.5,29.88,NE,45,0.9,3.4,43,0.00,,,0.00,WUHU216HW,2013-07-25 03:39:00,
2013-07-24 20:44:00,76.1,52.6,29.89,NNW,338,1.3,2.9,44,0.00,,,0.00,WUHU216HW,2013-07-25 03:44:00,
2013-07-24 20:49:00,75.8,52.3,29.89,North,0,0.4,2.9,44,0.00,,,0.00,WUHU216HW,2013-07-25 03:49:00,
2013-07-24 20:54:00,75.4,52.6,29.89,SSW,203,2.5,2.5,45,0.00,,,0.00,WUHU216HW,2013-07-25 03:54:00,
2013-07-24 20:59:00,75.2,52.4,29.89,NW,315,0.9,2.9,45,0.00,,,0.00,WUHU216HW,2013-07-25 03:59:00,
2013-07-24 21:01:00,74.9,52.0,29.89,NNW,338,0.7,2.9,45,0.00,,,0.00,WUHU216HW,2013-07-25 04:01:00,
2013-07-24 21:06:00,74.5,52.3,29.89,NNW,338,1.1,1.8,46,0.00,,,0.00,WUHU216HW,2013-07-25 04:06:00,
2013-07-24 21:11:00,74.2,52.6,29.89,North,0,0.9,3.1,47,0.00,,,0.00,WUHU216HW,2013-07-25 04:11:00,
2013-07-24 21:17:00,74.0,52.4,29.89,NNW,338,0.4,3.1,47,0.00,,,0.00,WUHU216HW,2013-07-25 04:17:00,
2013-07-24 21:22:00,73.6,52.7,29.89,WNW,293,0.2,1.1,48,0.00,,,0.00,WUHU216HW,2013-07-25 04:22:00,
2013-07-24 21:27:00,73.3,52.3,29.89,WNW,293,0.4,1.1,48,0.00,,,0.00,WUHU216HW,2013-07-25 04:27:00,
2013-07-24 21:32:00,73.1,52.8,29.89,NNW,338,0.4,1.1,49,0.00,,,0.00,WUHU216HW,2013-07-25 04:32:00,
2013-07-24 21:37:00,72.7,52.4,29.89,East,90,0.0,0.4,49,0.00,,,0.00,WUHU216HW,2013-07-25 04:37:00,
2013-07-24 21:42:00,72.5,52.2,29.90,NW,315,1.6,1.6,49,0.00,,,0.00,WUHU216HW,2013-07-25 04:42:00,
2013-07-24 21:47:00,72.4,52.7,29.90,WNW,293,0.7,1.6,50,0.00,,,0.00,WUHU216HW,2013-07-25 04:47:00,
2013-07-24 21:52:00,72.0,52.4,29.90,WSW,248,0.9,1.3,50,0.00,,,0.00,WUHU216HW,2013-07-25 04:52:00,
2013-07-24 21:57:00,71.8,52.2,29.90,NW,315,1.1,1.3,50,0.00,,,0.00,WUHU216HW,2013-07-25 04:57:00,
2013-07-24 22:02:00,71.6,52.0,29.90,WNW,293,0.4,1.3,50,0.00,,,0.00,WUHU216HW,2013-07-25 05:02:00,
2013-07-24 22:07:00,71.5,52.4,29.90,WNW,293,1.3,2.5,51,0.00,,,0.00,WUHU216HW,2013-07-25 05:07:00,
2013-07-24 22:12:00,71.3,52.2,29.90,WNW,293,0.7,2.5,51,0.00,,,0.00,WUHU216HW,2013-07-25 05:12:00,
2013-07-24 22:17:00,71.1,52.6,29.90,North,0,0.9,2.9,52,0.00,,,0.00,WUHU216HW,2013-07-25 05:17:00,
2013-07-24 22:22:00,70.9,51.8,29.90,WNW,293,3.1,3.1,51,0.00,,,0.00,WUHU216HW,2013-07-25 05:22:00,
2013-07-24 22:27:00,70.7,51.8,29.90,North,0,0.4,3.1,51,0.00,,,0.00,WUHU216HW,2013-07-25 05:27:00,
2013-07-24 22:32:00,70.6,51.6,29.90,NNW,338,0.4,3.1,51,0.00,,,0.00,WUHU216HW,2013-07-25 05:32:00,
2013-07-24 22:37:00,70.6,51.6,29.90,North,0,0.4,1.6,51,0.00,,,0.00,WUHU216HW,2013-07-25 05:37:00,
2013-07-24 22:42:00,70.2,51.8,29.90,WNW,293,0.7,1.3,52,0.00,,,0.00,WUHU216HW,2013-07-25 05:42:00,
2013-07-24 22:47:00,69.8,51.0,29.90,WNW,293,1.1,1.8,51,0.00,,,0.00,WUHU216HW,2013-07-25 05:47:00,
2013-07-24 22:52:00,69.7,51.2,29.90,West,270,0.2,1.8,52,0.00,,,0.00,WUHU216HW,2013-07-25 05:52:00,
2013-07-24 22:57:00,69.5,51.6,29.90,North,0,0.4,1.1,53,0.00,,,0.00,WUHU216HW,2013-07-25 05:57:00,
2013-07-24 23:02:00,69.1,51.2,29.90,NE,45,0.4,1.8,53,0.00,,,0.00,WUHU216HW,2013-07-25 06:02:00,
2013-07-24 23:07:00,68.8,51.4,29.90,NNE,23,1.3,1.8,54,0.00,,,0.00,WUHU216HW,2013-07-25 06:07:00,
2013-07-24 23:12:00,68.8,51.9,29.90,NE,45,1.6,2.5,55,0.00,,,0.00,WUHU216HW,2013-07-25 06:12:00,
2013-07-24 23:17:00,68.4,51.6,29.90,North,0,0.9,2.5,55,0.00,,,0.00,WUHU216HW,2013-07-25 06:17:00,
2013-07-24 23:22:00,68.0,51.2,29.90,North,0,0.4,1.8,55,0.00,,,0.00,WUHU216HW,2013-07-25 06:22:00,
2013-07-24 23:27:00,68.0,51.2,29.90,NE,45,0.7,1.6,55,0.00,,,0.00,WUHU216HW,2013-07-25 06:27:00,
2013-07-24 23:32:00,67.7,51.4,29.91,NNE,23,0.4,1.1,56,0.00,,,0.00,WUHU216HW,2013-07-25 06:32:00,
2013-07-24 23:37:00,67.5,52.2,29.91,East,90,2.0,2.0,58,0.00,,,0.00,WUHU216HW,2013-07-25 06:37:00,
2013-07-24 23:42:00,67.1,51.8,29.91,ENE,68,0.7,2.0,58,0.00,,,0.00,WUHU216HW,2013-07-25 06:42:00,
2013-07-24 23:47:00,67.0,51.7,29.91,NNE,23,1.3,1.8,58,0.00,,,0.00,WUHU216HW,2013-07-25 06:47:00,
2013-07-24 23:52:00,66.8,51.6,29.91,NNE,23,0.9,1.3,58,0.00,,,0.00,WUHU216HW,2013-07-25 06:52:00,
2013-07-24 23:57:00,66.6,51.4,29.91,North,0,0.7,1.3,58,0.00,,,0.00,WUHU216HW,2013-07-25 06:57:00,